CW3643 Weather Reports


time (UTC)temp
C
wind
direction
speed
KPH
gust
KPH
rain 1hr
cm
rain 24hr
cm
rain mn
cm
humidity
%
barometer
mb
20260902041054 17 0.0 0.0 0.00 0.00 0.00 84 1019.1
20260902040514 17 340 3.2 11.3 0.00 0.00 0.00 84 1019.3
20260902040042 17 340 3.2 11.3 0.00 0.00 0.00 84 1019.4
20260902035537 17 340 4.8 11.3 0.00 0.00 0.00 84 1019.3
20260902035018 17 8 4.8 14.5 0.00 0.00 0.00 84 1019.3
20260902034014 17 336 6.4 19.3 0.00 0.00 0.00 84 1019.3
20260902033521 17 3 4.8 19.3 0.00 0.00 0.00 84 1019.4
20260902033028 17 85 4.8 0.0 0.00 0.00 0.00 84 1019.4
20260902032512 17 328 6.4 11.3 0.00 0.00 0.00 84 1019.4
20260902032012 17 15 4.8 11.3 0.00 0.00 0.00 84 1019.4
20260902031519 17 13 4.8 11.3 0.00 0.00 0.00 83 1019.4
20260902031026 17 3 4.8 9.7 0.00 0.00 0.00 83 1019.5
20260902030515 17 329 1.6 12.9 0.00 0.00 0.00 83 1019.6
20260902025530 17 324 4.8 9.7 0.00 0.00 0.00 83 1019.6
20260902025036 17 3 3.2 9.7 0.00 0.00 0.00 83 1019.7
20260902023527 17 296 8.0 12.9 0.00 0.00 0.00 83 1019.6
20260902023114 17 336 6.4 12.9 0.00 0.00 0.00 83 1019.8
20260902022526 18 333 4.8 9.7 0.00 0.00 0.00 83 1019.8
20260902022013 18 12 1.6 9.7 0.00 0.00 0.00 83 1019.8
20260902021521 18 358 6.4 9.7 0.00 0.00 0.00 83 1019.9
20260902020533 18 14 3.2 12.9 0.00 0.00 0.00 83 1019.9
20260902020014 18 331 4.8 12.9 0.00 0.00 0.00 82 1019.9
20260902015542 18 12 1.6 11.3 0.00 0.00 0.00 82 1019.9
20260902015022 18 49 3.2 12.9 0.00 0.00 0.00 82 1020.0
20260902014531 18 4 8.0 12.9 0.00 0.00 0.00 82 1020.0
20260902014019 18 49 3.2 11.3 0.00 0.00 0.00 82 1020.1
20260902013546 18 1 3.2 11.3 0.00 0.00 0.00 82 1020.1
20260902013017 18 56 4.8 12.9 0.00 0.00 0.00 82 1020.2
20260902012518 18 47 8.0 12.9 0.00 0.00 0.00 82 1020.2
20260902012023 18 325 4.8 20.9 0.00 0.00 0.00 82 1020.2
20260902011530 18 18 8.0 22.5 0.00 0.00 0.00 82 1020.1
20260902011037 18 348 9.7 24.1 0.00 0.00 0.00 81 1020.0
20260902010613 18 3 11.3 24.1 0.00 0.00 0.00 81 1020.1
20260902010036 18 10 12.9 24.1 0.00 0.00 0.00 81 1020.1
20260902005537 18 326 14.5 24.1 0.00 0.00 0.00 81 1020.1
20260902005013 18 330 11.3 24.1 0.00 0.00 0.00 81 1020.1
20260902004518 18 288 11.3 27.4 0.00 0.00 0.00 81 1020.1
20260902004026 18 330 16.1 30.6 0.00 0.00 0.00 82 1020.1
20260902003014 18 4 16.1 30.6 0.00 0.00 0.00 82 1020.1
20260902002522 18 316 20.9 30.6 0.00 0.00 0.00 82 1020.1
20260902002025 18 342 16.1 30.6 0.00 0.00 0.00 82 1020.0
20260902001518 18 359 17.7 30.6 0.00 0.00 0.00 82 1020.0
20260902001025 18 17 14.5 0.0 0.00 0.00 0.00 82 1019.9
20260902000537 18 5 16.1 24.1 0.00 0.00 0.00 82 1020.0
20260902000017 18 307 14.5 25.7 0.00 0.00 0.00 82 1020.0
20260901235518 18 355 14.5 27.4 0.00 0.00 0.00 82 1019.9
20260901235025 18 341 16.1 27.4 0.00 0.00 0.00 82 1020.0
20260901234513 18 266 17.7 32.2 0.00 0.00 0.00 82 1020.1
20260901234013 18 24 16.1 32.2 0.00 0.00 0.00 82 1020.1
20260901233512 18 8 16.1 27.4 0.00 0.00 0.00 82 1020.1
20260901233022 18 335 12.9 29.0 0.00 0.00 0.00 81 1020.2
20260901232543 18 318 14.5 29.0 0.00 0.00 0.00 82 1020.2
20260901232030 18 357 19.3 27.4 0.00 0.00 0.00 82 1020.2
20260901231538 18 332 12.9 25.7 0.00 0.00 0.00 82 1020.2
20260901231018 18 10 16.1 25.7 0.00 0.00 0.00 82 1020.3
20260901230526 18 324 14.5 24.1 0.00 0.00 0.00 82 1020.2
20260901230035 18 342 11.3 25.7 0.00 0.00 0.00 82 1020.3
20260901225535 18 353 14.5 25.7 0.00 0.00 0.00 82 1020.3
20260901225037 18 349 9.7 20.9 0.00 0.00 0.00 82 1020.3
20260901224522 18 343 12.9 20.9 0.00 0.00 0.00 82 1020.4
20260901224137 18 357 11.3 20.9 0.00 0.00 0.00 82 1020.5
20260901223029 18 347 8.0 22.5 0.00 0.00 0.00 81 1020.5
20260901222526 18 20 14.5 22.5 0.00 0.00 0.00 81 1020.5
20260901222021 18 347 12.9 24.1 0.00 0.00 0.00 81 1020.7
20260901221527 18 308 9.7 25.7 0.00 0.00 0.00 81 1020.6
20260901221033 18 348 11.3 25.7 0.00 0.00 0.00 81 1020.7
20260901220543 18 2 8.0 19.3 0.00 0.00 0.00 81 1020.8
20260901220049 18 320 9.7 24.1 0.00 0.00 0.00 80 1020.7
20260901215526 18 324 14.5 24.1 0.00 0.00 0.00 80 1020.7
20260901214536 18 329 6.4 19.3 0.00 0.00 0.00 80 1020.8
20260901214021 18 6 8.0 19.3 0.00 0.00 0.00 80 1020.7
20260901213529 18 8 6.4 27.4 0.00 0.00 0.00 80 1020.7
20260901213029 18 352 8.0 19.3 0.00 0.00 0.00 80 1020.8
20260901212532 18 347 8.0 19.3 0.00 0.00 0.00 80 1020.8
20260901212013 19 55 9.7 25.7 0.00 0.00 0.00 80 1020.8
20260901211521 19 345 4.8 25.7 0.00 0.00 0.00 80 1020.7
20260901211026 19 310 11.3 20.9 0.00 0.00 0.00 80 1020.6
20260901210514 19 12 8.0 24.1 0.00 0.00 0.00 79 1020.6
20260901210041 19 253 12.9 24.1 0.00 0.00 0.00 79 1020.5
20260901205519 19 344 8.0 19.3 0.00 0.00 0.00 79 1020.5
20260901205026 19 350 11.3 20.9 0.00 0.00 0.00 79 1020.5
20260901204527 19 360 6.4 20.9 0.00 0.00 0.00 79 1020.4
20260901204014 19 18 9.7 20.9 0.00 0.00 0.00 79 1020.4
20260901203521 19 352 6.4 27.4 0.00 0.00 0.00 78 1020.3
20260901202523 19 336 11.3 25.7 0.00 0.00 0.00 78 1020.1
20260901202051 19 343 12.9 25.7 0.00 0.00 0.00 78 1020.1
20260901201536 19 359 14.5 22.5 0.00 0.00 0.00 78 1020.0
20260901201023 19 314 8.0 30.6 0.00 0.00 0.00 77 1019.9
20260901200550 19 349 14.5 27.4 0.00 0.00 0.00 77 1019.8
20260901200015 20 329 12.9 30.6 0.00 0.00 0.00 77 1019.8
20260901195515 20 351 16.1 30.6 0.00 0.00 0.00 77 1019.7
20260901195042 20 334 12.9 25.7 0.00 0.00 0.00 77 1019.5
20260901194015 20 345 11.3 20.9 0.00 0.00 0.00 76 1019.6
20260901193523 20 340 11.3 25.7 0.00 0.00 0.00 76 1019.5
20260901193015 20 341 14.5 27.4 0.00 0.00 0.00 76 1019.5
20260901192516 20 342 16.1 27.4 0.00 0.00 0.00 76 1019.4
20260901192031 20 339 14.5 25.7 0.00 0.00 0.00 75 1019.5
20260901191513 20 305 12.9 33.8 0.00 0.00 0.00 75 1019.5
20260901191026 20 302 8.0 24.1 0.00 0.00 0.00 75 1019.5
20260901190536 20 327 9.7 20.9 0.00 0.00 0.00 74 1019.4
20260901190015 21 63 8.0 20.9 0.00 0.00 0.00 74 1019.3
20260901185517 21 328 11.3 25.7 0.00 0.00 0.00 73 1019.3
20260901185024 21 13 14.5 32.2 0.00 0.00 0.00 73 1019.3
20260901184530 21 338 19.3 32.2 0.00 0.00 0.00 72 1019.4
20260901184018 21 190 11.3 30.6 0.00 0.00 0.00 72 1019.3
20260901183521 21 190 11.3 29.0 0.00 0.00 0.00 71 1019.3
20260901183049 21 190 17.7 29.0 0.00 0.00 0.00 71 1019.2
20260901182615 21 190 17.7 35.4 0.00 0.00 0.00 71 1019.2
20260901182011 21 190 20.9 38.6 0.00 0.00 0.00 71 1019.2
20260901181518 22 333 20.9 35.4 0.00 0.00 0.00 70 1019.2
20260901181026 22 190 19.3 35.4 0.00 0.00 0.00 70 1019.2
20260901180514 22 190 14.5 37.0 0.00 0.00 0.00 69 1019.2
20260901180022 22 190 19.3 37.0 0.00 0.00 0.00 68 1019.1
20260901175519 22 334 16.1 29.0 0.00 0.00 0.00 68 1019.1
20260901175027 22 190 17.7 40.2 0.00 0.00 0.00 67 1019.1
20260901174515 22 190 14.5 40.2 0.00 0.00 0.00 67 1019.0
20260901174018 22 299 16.1 32.2 0.00 0.00 0.00 68 1019.0
20260901173524 22 340 17.7 32.2 0.00 0.00 0.00 67 1019.0
20260901172535 22 326 22.5 37.0 0.00 0.00 0.00 67 1018.9
20260901172022 22 343 19.3 37.0 0.00 0.00 0.00 68 1018.8
20260901171530 22 311 22.5 35.4 0.00 0.00 0.00 67 1018.7
20260901171037 22 316 16.1 35.4 0.00 0.00 0.00 68 1018.7
20260901170518 22 357 19.3 40.2 0.00 0.00 0.00 68 1018.8
20260901170027 23 299 27.4 40.2 0.00 0.00 0.00 68 1018.7
20260901165536 23 334 17.7 33.8 0.00 0.00 0.00 67 1018.7
20260901165016 23 190 16.1 35.4 0.00 0.00 0.00 67 1018.8
20260901164525 23 359 19.3 35.4 0.00 0.00 0.00 67 1018.8
20260901164052 23 190 24.1 33.8 0.00 0.00 0.00 66 1018.7
20260901163511 23 345 17.7 32.2 0.00 0.00 0.00 65 1018.8
20260901163021 23 190 17.7 30.6 0.00 0.00 0.00 65 1018.7
20260901162529 24 332 12.9 32.2 0.00 0.00 0.00 65 1018.5
20260901162029 23 307 24.1 35.4 0.00 0.00 0.00 65 1018.5
20260901161543 24 190 25.7 35.4 0.00 0.00 0.00 64 1018.6
20260901160511 24 312 17.7 32.2 0.00 0.00 0.00 64 1018.5
20260901160019 24 331 20.9 29.0 0.00 0.00 0.00 64 1018.5
20260901155521 24 190 14.5 32.2 0.00 0.00 0.00 63 1018.5
20260901155029 24 190 24.1 32.2 0.00 0.00 0.00 62 1018.5
20260901154517 25 317 19.3 32.2 0.00 0.00 0.00 61 1018.6
20260901154052 25 353 19.3 32.2 0.00 0.00 0.00 61 1018.6
20260901153527 25 334 19.3 29.0 0.00 0.00 0.00 60 1018.5
20260901153036 25 355 20.9 29.0 0.00 0.00 0.00 60 1018.5
20260901152550 25 3 16.1 30.6 0.00 0.00 0.00 61 1018.5
20260901152029 25 301 22.5 30.6 0.00 0.00 0.00 60 1018.5
20260901151523 25 340 17.7 30.6 0.00 0.00 0.00 60 1018.5
20260901151027 25 321 20.9 30.6 0.00 0.00 0.00 58 1018.5
20260901150610 25 345 12.9 32.2 0.00 0.00 0.00 59 1018.5
20260901145514 25 22 12.9 24.1 0.00 0.00 0.00 59 1018.6
20260901145021 25 320 16.1 27.4 0.00 0.00 0.00 58 1018.7
20260901144528 25 353 16.1 27.4 0.00 0.00 0.00 58 1018.8
20260901144031 25 24 9.7 24.1 0.00 0.00 0.00 58 1018.7
20260901143559 25 312 16.1 29.0 0.00 0.00 0.00 56 1018.7
20260901143025 25 356 16.1 29.0 0.00 0.00 0.00 58 1018.7
20260901142525 25 24 9.7 25.7 0.00 0.00 0.00 58 1018.7
20260901142026 25 346 14.5 25.7 0.00 0.00 0.00 59 1018.7
20260901141020 25 330 9.7 22.5 0.00 0.00 0.00 60 1018.8
20260901140040 25 301 12.9 30.6 0.00 0.00 0.00 62 1018.8
20260901135518 25 278 17.7 30.6 0.00 0.00 0.00 61 1018.9
20260901135025 25 305 17.7 25.7 0.00 0.00 0.00 60 1018.8
20260901134556 25 309 12.9 24.1 0.00 0.00 0.00 60 1018.8
20260901134026 25 343 12.9 24.1 0.00 0.00 0.00 61 1018.8
20260901133514 24 55 3.2 22.5 0.00 0.00 0.00 60 1018.9
20260901133021 24 301 14.5 27.4 0.00 0.00 0.00 60 1019.0
20260901132522 24 324 17.7 27.4 0.00 0.00 0.00 60 1019.1
20260901132030 24 321 14.5 29.0 0.00 0.00 0.00 62 1019.1
20260901131517 24 1 14.5 29.0 0.00 0.00 0.00 62 1019.1
20260901130533 24 352 12.9 20.9 0.00 0.00 0.00 61 1019.3
20260901130014 24 313 11.3 32.2 0.00 0.00 0.00 62 1019.2
20260901125515 24 348 14.5 27.4 0.00 0.00 0.00 61 1019.2
20260901125029 24 304 14.5 29.0 0.00 0.00 0.00 62 1019.3
20260901124011 24 3 12.9 27.4 0.00 0.00 0.00 62 1019.4
20260901123546 24 190 14.5 27.4 0.00 0.00 0.00 62 1019.4
20260901123021 23 254 3.2 27.4 0.00 0.00 0.00 64 1019.4
20260901122521 23 6 11.3 27.4 0.00 0.00 0.00 63 1019.5
20260901122046 23 116 9.7 27.4 0.00 0.00 0.00 63 1019.5
20260901121559 23 190 17.7 29.0 0.00 0.00 0.00 65 1019.5
20260901121018 23 190 17.7 29.0 0.00 0.00 0.00 66 1019.6
20260901120525 23 300 16.1 29.0 0.00 0.00 0.00 66 1019.6
20260901120012 22 347 19.3 29.0 0.00 0.00 0.00 66 1019.6
20260901115512 22 343 16.1 32.2 0.00 0.00 0.00 67 1019.6
20260901115018 22 345 9.7 29.0 0.00 0.00 0.00 68 1019.7
20260901114027 22 2 9.7 33.8 0.00 0.00 0.00 67 1019.8
20260901113529 22 354 16.1 33.8 0.00 0.00 0.00 67 1019.7
20260901113016 23 14 12.9 32.2 0.00 0.00 0.00 68 1019.7
20260901112516 23 327 11.3 27.4 0.00 0.00 0.00 68 1019.8
20260901112044 22 190 14.5 27.4 0.00 0.00 0.00 68 1019.8
20260901111537 22 11 11.3 33.8 0.00 0.00 0.00 67 1019.9
20260901111025 22 190 19.3 33.8 0.00 0.00 0.00 67 1019.9
20260901110534 22 64 8.0 22.5 0.00 0.00 0.00 69 1019.9
20260901110042 22 345 9.7 30.6 0.00 0.00 0.00 70 1020.1
20260901105522 22 355 9.7 30.6 0.00 0.00 0.00 70 1020.1
20260901105030 22 320 8.0 20.9 0.00 0.00 0.00 72 1020.1
20260901104013 21 326 9.7 24.1 0.00 0.00 0.00 72 1020.1
20260901103514 21 321 12.9 24.1 0.00 0.00 0.00 73 1020.1
20260901103029 21 305 14.5 24.1 0.00 0.00 0.00 74 1020.1
20260901102528 21 340 6.4 24.1 0.00 0.00 0.00 75 1020.1
20260901102038 21 190 11.3 32.2 0.00 0.00 0.00 75 1020.1
20260901101525 21 190 14.5 32.2 0.00 0.00 0.00 74 1020.0
20260901101031 21 12 11.3 33.8 0.00 0.00 0.00 74 1020.1
20260901100538 20 349 17.7 33.8 0.00 0.00 0.00 74 1020.1
20260901100018 20 190 16.1 25.7 0.00 0.00 0.00 75 1020.1
20260901095522 20 190 9.7 20.9 0.00 0.00 0.00 75 1020.1
20260901095030 20 190 8.0 22.5 0.00 0.00 0.00 76 1020.1
20260901094518 20 190 9.7 27.4 0.00 0.00 0.00 76 1020.1
20260901094026 20 12 11.3 27.4 0.00 0.00 0.00 76 1020.0
20260901093534 20 311 12.9 27.4 0.00 0.00 0.00 76 1020.1
20260901092522 20 320 16.1 27.4 0.00 0.00 0.00 76 1020.0
20260901092029 20 6 14.5 29.0 0.00 0.00 0.00 77 1020.1
20260901091616 20 190 16.1 29.0 0.00 0.00 0.00 77 1020.0
20260901091038 20 296 9.7 17.7 0.00 0.00 0.00 77 1019.9
20260901090526 20 351 4.8 30.6 0.00 0.00 0.00 78 1019.9
20260901090034 20 8 11.3 30.6 0.00 0.00 0.00 78 1019.9
20260901085022 20 190 9.7 19.3 0.00 0.00 0.00 78 1019.9
20260901084013 20 343 6.4 20.9 0.00 0.00 0.00 78 1019.9
20260901083521 20 347 9.7 24.1 0.00 0.00 0.00 78 1019.8
20260901083025 20 349 9.7 30.6 0.00 0.00 0.00 78 1019.8
20260901082012 20 334 14.5 33.8 0.00 0.00 0.00 77 1019.8
20260901081513 20 301 17.7 32.2 0.00 0.00 0.00 77 1019.8
20260901081020 20 190 11.3 27.4 0.00 0.00 0.00 77 1019.8
20260901080528 20 32 8.0 33.8 0.00 0.00 0.00 78 1019.8
20260901075517 19 190 16.1 30.6 0.00 0.00 0.00 79 1019.6
20260901075018 19 190 4.8 19.3 0.00 0.00 0.00 80 1019.7
20260901074531 19 190 4.8 24.1 0.00 0.00 0.00 80 1019.7
20260901073512 18 190 14.5 22.5 0.00 0.00 0.00 80 1019.6
20260901073020 18 190 8.0 24.1 0.00 0.00 0.00 80 1019.6
20260901072520 18 344 12.9 24.1 0.00 0.00 0.00 80 1019.6
20260901072023 18 190 4.8 20.9 0.00 0.00 0.00 81 1019.6
20260901071551 18 190 8.0 20.9 0.00 0.00 0.00 81 1019.5
20260901071036 18 190 11.3 19.3 0.00 0.00 0.00 81 1019.5
20260901070550 18 190 8.0 20.9 0.00 0.00 0.00 81 1019.6
20260901070017 18 353 9.7 20.9 0.00 0.00 0.00 81 1019.6
20260901065518 18 4 8.0 22.5 0.00 0.00 0.00 81 1019.5
20260901065027 18 8 9.7 22.5 0.00 0.00 0.00 81 1019.5
20260901064514 18 311 11.3 22.5 0.00 0.00 0.00 81 1019.4
20260901064023 18 29 4.8 22.5 0.00 0.00 0.00 81 1019.3
20260901063524 18 62 526.3 526.3 0.00 0.00 0.00 81 1019.2
20260901063029 18 15 8.0 22.5 0.00 0.00 0.00 82 1019.3
20260901062529 18 26 11.3 22.5 0.00 0.00 0.00 82 1019.4
20260901062029 18 351 9.7 25.7 0.00 0.00 0.00 82 1019.3
20260901061517 18 347 6.4 25.7 0.00 0.00 0.00 82 1019.3
20260901061024 18 16 6.4 24.1 0.00 0.00 0.00 82 1019.2
20260901060535 18 28 9.7 24.1 0.00 0.00 0.00 82 1019.1
20260901060014 18 16 6.4 22.5 0.00 0.00 0.00 82 1019.0
20260901055522 18 1 4.8 24.1 0.00 0.00 0.00 82 1019.1
20260901055029 18 15 6.4 24.1 0.00 0.00 0.00 82 1019.0
20260901054518 18 345 11.3 24.1 0.00 0.00 0.00 82 1019.0
20260901054019 18 347 8.0 24.1 0.00 0.00 0.00 82 1019.0
20260901053513 18 324 12.9 24.1 0.00 0.00 0.00 82 1019.0
20260901052514 18 291 9.7 17.7 0.00 0.00 0.00 82 1019.0
20260901052022 18 35 9.7 17.7 0.00 0.00 0.00 82 1019.0
20260901051530 18 321 8.0 22.5 0.00 0.00 0.00 82 1019.0
20260901051057 18 49 9.7 22.5 0.00 0.00 0.00 82 1019.0
20260901050517 18 259 6.4 20.9 0.00 0.00 0.00 82 1019.0
20260901050025 18 3 8.0 22.5 0.00 0.00 0.00 82 1019.0
20260901045522 18 339 8.0 22.5 0.00 0.00 0.00 82 1018.9
20260901045029 18 317 12.9 22.5 0.00 0.00 0.00 82 1018.9
20260901044538 18 74 6.4 17.7 0.00 0.00 0.00 82 1018.9
20260901043532 18 326 9.7 22.5 0.00 0.00 0.00 82 1018.9
20260901043013 18 23 8.0 22.5 0.00 0.00 0.00 82 1018.9
20260901042514 18 46 4.8 12.9 0.00 0.00 0.00 82 1018.9
20260901042022 18 16 8.0 22.5 0.00 0.00 0.00 82 1018.9
20260901041530 18 351 6.4 22.5 0.00 0.00 0.00 82 1018.9